[[{"header":{"parameterUnit":"m.s-1","parameterCategory":1,"la1":30.2991,"la2":30.254,"lo1":-89.0895,"lo2":-89.0444,"dy":0.0017,"dx":0.0017,"nx":28,"ny":28,"refTime":"2024-09-27T09:00:00:Z","depth":0,"parameterNumber":2,"parameterNumberName":"U-component_of_WINDS"},"data":[0,0,0,0,0,0,0,0,0,0,0,0,0,0,0,0,0,0,0,0,0,0,0,0,0,0,0,0,0,0,0,0,0,0,0,0,0,0,0,0,0,0,0,0,0,0,0,0,0,0,0,0,0,0,0,0,0,0,5.4086,5.4088,0,5.4309,5.4312,5.4314,5.427,5.4266,5.4262,5.4258,5.449,5.4499,5.4509,0,0,0,0,0,0,0,0,0,0,0,0,0,5.3621,5.363,5.4086,5.4089,5.4091,5.4309,5.4312,5.4315,5.4271,5.4266,5.4261,5.4256,5.4486,5.4498,5.451,0,0,0,0,0,0,0,0,0,0,0,0,0,5.3832,5.3633,5.4085,5.4095,5.4099,5.4308,5.4312,5.4316,5.4272,5.4266,5.426,5.4254,5.4483,5.4497,5.4512,5.4726,0,0,5.4557,5.4564,0,0,0,0,0,0,0,0,5.382,5.3849,5.4091,5.4095,5.4099,5.4255,5.4233,5.4454,5.4273,5.4206,5.4258,5.4251,5.4417,5.4437,5.4492,5.4737,5.4747,5.4559,5.4568,5.4574,5.4578,0,0,0,0,0,0,0,5.3805,5.3839,5.4174,5.4095,5.41,5.4089,5.4112,5.4275,5.4343,5.4212,5.4209,5.4236,5.4418,5.4478,5.4497,5.475,5.4558,5.4572,5.4581,5.4587,5.5178,5.5184,0,0,0,0,0,0,5.3787,5.3827,5.4167,5.4181,5.3941,5.4102,5.4128,5.4212,5.4341,5.4355,5.4241,5.4233,5.4455,5.448,5.4505,5.4761,5.4574,5.4588,5.4597,5.5171,5.5179,5.5186,0,0,0,0,0,0,5.3777,5.3818,5.4158,5.4003,5.4046,5.4117,5.4211,5.4219,5.4279,5.4363,5.4375,5.4289,5.4452,5.4484,5.467,5.4769,5.4595,5.4608,5.5163,5.5174,5.5183,5.5277,0,0,0,0,0,0,5.3764,5.3815,5.3897,5.4006,5.4054,5.432,5.4217,5.4228,5.4305,5.4296,5.4412,5.4426,5.4449,5.4648,5.4685,5.4786,5.462,5.5155,5.5168,5.518,5.5266,5.529,5.531,0,0,0,0,0,5.3748,5.3916,5.3901,5.3943,5.4159,5.4326,5.4353,5.4377,5.4313,5.4396,5.4449,5.4422,5.4753,5.4668,5.4709,5.4816,5.5148,5.5164,5.5179,5.5256,5.5285,5.5309,0,0,0,0,0,0,5.3819,5.3931,5.3915,5.4124,5.4215,5.4318,5.4423,5.4407,5.4519,5.4507,5.4532,5.4558,5.4747,5.4801,5.4704,5.5028,5.4941,5.4966,5.4986,5.5014,5.5036,5.5018,5.4633,0,0,0,0,0,5.3859,5.3985,5.4076,5.4251,5.4297,5.4353,5.4426,5.4436,5.4532,5.457,5.4638,5.4732,5.4857,5.4939,5.5059,5.5274,5.5297,5.5368,5.5389,5.5407,5.5427,5.5541,5.5572,5.5236,5.5236,5.5236,0,0,5.3943,5.4019,5.4098,5.4267,5.4339,5.4468,5.4385,5.4527,5.4622,5.4592,5.477,5.4823,5.4931,5.5131,5.5222,5.5181,5.5525,5.5427,5.544,5.5451,5.556,5.5591,5.562,5.5247,5.5245,5.5243,0,0,5.4161,5.4233,5.4385,5.4458,5.4566,5.4602,5.4638,5.4743,5.4775,5.4955,5.4934,5.5048,5.5264,5.534,5.5407,5.565,5.5628,5.5689,5.5803,5.5914,5.594,5.5963,5.6047,5.6077,5.5709,5.5709,5.5709,0,5.4252,5.4445,5.4465,5.4607,5.4681,5.4658,5.4811,5.4882,5.5025,5.5076,5.5028,5.5295,5.5366,5.5581,5.564,5.5697,5.5737,5.5675,5.5934,5.5958,5.5981,5.606,5.6092,5.5715,5.5715,5.5714,5.5713,0,5.4549,5.4684,5.4793,5.4929,5.5016,5.5163,5.5205,5.529,5.5292,5.5331,5.5513,5.5596,5.5731,5.5783,5.5788,5.5999,5.597,5.5928,5.5841,5.6019,5.6094,5.6125,5.5725,5.5722,5.572,5.5719,0,0,5.482,5.4962,5.5002,5.5062,5.5179,5.5283,5.5428,5.5558,5.5629,5.5729,5.5849,5.6031,5.5991,5.6067,5.608,5.6177,5.636,5.6123,5.6126,5.6161,5.6594,5.6622,5.6658,5.6347,5.6353,5.6357,5.6584,0,5.5046,5.53,5.5321,5.555,5.5672,5.5651,5.5777,5.5862,5.5903,5.6013,5.6058,5.6184,5.6125,5.617,5.6266,5.6317,5.6447,5.6302,5.6458,5.6463,5.6428,5.6698,5.6729,5.6939,5.6614,5.6619,5.6623,0,5.5345,5.5449,5.5689,5.5786,5.5838,5.5951,5.6069,5.6175,5.627,5.6293,5.6376,5.6374,5.6522,5.643,5.6633,5.6534,5.6599,5.6634,5.6642,5.6656,5.6552,5.6716,5.7007,5.7037,5.667,5.6666,5.6663,0,5.5513,5.5715,5.5883,5.5936,5.6053,5.6132,5.6185,5.6274,5.635,5.6454,5.6503,5.6624,5.669,5.6783,5.6813,5.6744,5.7014,5.6925,5.7035,5.7034,5.7091,5.7087,5.7394,5.7138,5.7137,5.7137,5.7136,0,5.5762,5.5909,5.596,5.6063,5.6227,5.6249,5.641,5.6459,5.6538,5.665,5.664,5.6746,5.678,5.6891,5.6917,5.7078,5.7109,5.713,5.7135,5.713,5.7127,5.7171,5.7156,5.7145,5.7143,5.7142,5.714,0,5.5977,5.6018,5.6199,5.6295,5.6322,5.6438,5.6519,5.6618,5.6656,5.6798,5.6832,5.6892,5.7022,5.7061,5.7219,5.7236,5.7424,5.7417,5.7391,5.7391,5.7497,5.7485,5.7841,5.7887,5.7604,5.7606,5.7609,0,5.6132,5.6244,5.635,5.6424,5.6479,5.6598,5.6674,5.67,5.678,5.6895,5.698,5.7107,5.7211,5.7419,5.7476,5.7596,5.759,5.7706,5.7608,5.7598,5.7587,5.7579,5.7589,5.7724,5.7727,5.7729,5.7731,0,5.6402,5.6415,5.6524,5.664,5.673,5.6824,5.6913,5.6974,5.7013,5.7102,5.7234,5.7314,5.7472,5.7599,5.7719,5.7773,5.7759,5.7762,5.7793,5.7788,5.7766,5.7776,5.7438,5.7753,5.7751,5.775,5.7748,5.7748,5.659,5.6686,5.6775,5.6896,5.6965,5.7048,5.7145,5.7194,5.7303,5.7433,5.7442,5.7584,5.7673,5.7833,5.7894,5.8004,5.797,5.8016,5.8027,5.8037,5.8044,5.7751,5.8027,5.8026,5.8026,5.8025,5.8025,0,5.6855,5.691,5.7022,5.7145,5.724,5.7217,5.7314,5.7394,5.7518,5.7603,5.7704,5.7853,5.7975,5.8041,5.8162,5.8237,5.8233,5.8268,5.8261,5.8273,5.8069,5.8028,5.8269,5.8269,5.8268,5.8268,5.8268,5.8268,5.7004,5.7166,5.7189,5.7384,5.7439,5.7575,5.7632,5.7708,5.7775,5.7941,5.8041,5.8083,5.816,5.8286,5.8395,5.8412,5.8455,5.8493,5.8505,5.8313,5.8288,5.8264,5.8226,5.8503,5.8504,5.8699,5.8701,5.8702]},{"header":{"parameterUnit":"m.s-1","parameterCategory":1,"la1":30.2991,"la2":30.254,"lo1":-89.0895,"lo2":-89.0444,"dy":0.0017,"dx":0.0017,"nx":28,"ny":28,"refTime":"2024-09-27T09:00:00:Z","depth":0,"parameterNumber":3,"parameterNumberName":"V-component_of_WINDS"},"data":[0,0,0,0,0,0,0,0,0,0,0,0,0,0,0,0,0,0,0,0,0,0,0,0,0,0,0,0,0,0,0,0,0,0,0,0,0,0,0,0,0,0,0,0,0,0,0,0,0,0,0,0,0,0,0,0,0,0,2.6399,2.64,0,2.649,2.6491,2.6492,2.6468,2.6466,2.6465,2.6463,2.6554,2.6558,2.6562,0,0,0,0,0,0,0,0,0,0,0,0,0,2.6203,2.6207,2.6399,2.64,2.6402,2.649,2.6491,2.6492,2.6469,2.6466,2.6464,2.6462,2.6553,2.6558,2.6563,0,0,0,0,0,0,0,0,0,0,0,0,0,2.629,2.6208,2.6399,2.64,2.6401,2.6489,2.6491,2.6492,2.6469,2.6466,2.6464,2.6461,2.6551,2.6557,2.6563,2.6655,0,0,2.6582,2.6585,0,0,0,0,0,0,0,0,2.6285,2.6298,2.6399,2.64,2.6402,2.6465,2.6455,2.6547,2.647,2.6443,2.6463,2.646,2.6527,2.6535,2.6558,2.666,2.6663,2.6583,2.6587,2.6589,2.6591,0,0,0,0,0,0,0,2.6279,2.6293,2.6435,2.6401,2.6402,2.6395,2.6405,2.6472,2.6499,2.6445,2.6444,2.6455,2.6527,2.6552,2.656,2.6665,2.6583,2.6588,2.6592,2.6594,2.6844,2.6846,0,0,0,0,0,0,2.6273,2.6289,2.6432,2.6438,2.6336,2.6401,2.6412,2.6447,2.6498,2.6503,2.6457,2.6454,2.6543,2.6552,2.6563,2.6672,2.6589,2.6595,2.6598,2.6841,2.6844,2.6847,0,0,0,0,0,0,2.6268,2.6286,2.6428,2.6363,2.638,2.6407,2.6448,2.6451,2.6475,2.6507,2.6511,2.6478,2.6541,2.6554,2.6632,2.6675,2.6598,2.6603,2.6837,2.6842,2.6846,2.6892,0,0,0,0,0,0,2.6263,2.6284,2.632,2.6364,2.6384,2.6497,2.645,2.6454,2.6486,2.6482,2.6528,2.6533,2.654,2.6623,2.6638,2.6682,2.6608,2.6834,2.6839,2.6844,2.6887,2.6898,2.6907,0,0,0,0,0,2.6256,2.633,2.6322,2.634,2.643,2.65,2.6511,2.6519,2.649,2.6526,2.6545,2.6531,2.6668,2.6631,2.6648,2.6694,2.6831,2.6838,2.6844,2.6883,2.6896,2.6907,0,0,0,0,0,0,2.6291,2.6336,2.6328,2.6418,2.6456,2.6496,2.6542,2.6532,2.6578,2.6573,2.6579,2.6589,2.6669,2.6689,2.6648,2.6784,2.6745,2.6755,2.6768,2.6781,2.6791,2.6784,2.6613,0,0,0,0,0,2.6309,2.6363,2.6399,2.6476,2.6495,2.6515,2.6546,2.6548,2.6586,2.6602,2.6627,2.6665,2.6716,2.6749,2.6798,2.6889,2.6898,2.6929,2.6939,2.6947,2.6956,2.7004,2.7017,2.6869,2.6869,2.6869,0,0,2.6348,2.6379,2.6413,2.6483,2.6512,2.6567,2.6528,2.6588,2.6628,2.6611,2.6686,2.6706,2.6747,2.6832,2.687,2.6851,2.6999,2.6956,2.6962,2.6966,2.7012,2.7026,2.7038,2.6874,2.6873,2.6872,0,0,2.6446,2.6475,2.6541,2.6571,2.6615,2.6627,2.6643,2.6685,2.6697,2.6772,2.6759,2.6806,2.6895,2.6925,2.6951,2.7057,2.7045,2.7073,2.7125,2.7171,2.7183,2.7193,2.723,2.7243,2.7082,2.7082,2.7082,0,2.6488,2.6571,2.6576,2.6637,2.6667,2.6653,2.6719,2.6747,2.6805,2.6826,2.6804,2.6913,2.694,2.703,2.7056,2.7078,2.7095,2.7068,2.7181,2.7191,2.7201,2.7236,2.725,2.7085,2.7085,2.7084,2.7084,0,2.6619,2.6676,2.6724,2.678,2.6816,2.6879,2.6893,2.6928,2.6926,2.694,2.7016,2.7048,2.7102,2.7123,2.7123,2.7213,2.7199,2.7179,2.714,2.7218,2.7251,2.7264,2.7089,2.7088,2.7087,2.7086,0,0,2.6744,2.68,2.6818,2.6842,2.6888,2.6932,2.6993,2.7046,2.7075,2.7115,2.7165,2.7239,2.722,2.725,2.7252,2.7293,2.7373,2.7267,2.7268,2.7285,2.7472,2.7487,2.7502,2.7365,2.7367,2.7369,2.7468,0,2.6845,2.6953,2.6959,2.7057,2.7109,2.7095,2.7148,2.7181,2.7196,2.7241,2.7256,2.7308,2.7279,2.7297,2.7337,2.7355,2.741,2.7348,2.741,2.7413,2.74,2.752,2.7536,2.7628,2.7481,2.7483,2.7485,0,2.6978,2.7021,2.7124,2.7161,2.7183,2.7231,2.7279,2.7322,2.7359,2.7366,2.7399,2.7394,2.7455,2.7413,2.7496,2.7453,2.7479,2.7491,2.7495,2.7501,2.7454,2.7528,2.7658,2.7671,2.7505,2.7504,2.7502,0,2.7057,2.7141,2.7213,2.7234,2.7279,2.7313,2.7333,2.7367,2.7398,2.7439,2.7458,2.7506,2.7532,2.7568,2.7576,2.7545,2.7659,2.7618,2.7665,2.7665,2.769,2.7688,2.7825,2.7707,2.7707,2.7707,2.7707,0,2.7169,2.7233,2.7248,2.7293,2.7363,2.7368,2.7436,2.7454,2.7484,2.753,2.7521,2.7564,2.7572,2.7617,2.7623,2.769,2.7702,2.7708,2.7709,2.7709,2.7708,2.7726,2.772,2.7711,2.771,2.7709,2.7708,0,2.7269,2.7283,2.736,2.7396,2.7407,2.7456,2.7487,2.7528,2.754,2.7599,2.7613,2.7632,2.7684,2.7695,2.7757,2.7761,2.784,2.7835,2.7828,2.7827,2.7874,2.7869,2.8026,2.8046,2.7916,2.7917,2.7919,0,2.734,2.7388,2.7429,2.746,2.7481,2.7531,2.7562,2.7567,2.76,2.7644,2.768,2.773,2.7771,2.7854,2.7873,2.792,2.7915,2.7967,2.7922,2.792,2.7914,2.7911,2.7915,2.7975,2.7977,2.7978,2.7979,0,2.7464,2.7467,2.7513,2.756,2.7597,2.7634,2.7669,2.7694,2.7705,2.7741,2.7794,2.7826,2.7888,2.7938,2.7984,2.8003,2.7992,2.7993,2.8006,2.8006,2.8,2.8003,2.785,2.7989,2.7988,2.7987,2.7987,2.7986,2.7551,2.7592,2.7627,2.7677,2.7704,2.7737,2.7777,2.7794,2.7838,2.7889,2.789,2.7947,2.798,2.804,2.8062,2.8106,2.809,2.811,2.8114,2.8119,2.8123,2.7993,2.8115,2.8114,2.8114,2.8114,2.8114,0,2.7673,2.7694,2.774,2.7789,2.7828,2.7815,2.7852,2.7885,2.7936,2.7968,2.8008,2.8067,2.8115,2.8137,2.8183,2.8214,2.821,2.8226,2.8224,2.8228,2.8135,2.8119,2.8228,2.8228,2.8228,2.8228,2.8228,2.8228,2.7741,2.781,2.7817,2.7899,2.7919,2.7975,2.7998,2.8027,2.8052,2.8119,2.8159,2.8173,2.82,2.8248,2.829,2.8295,2.8313,2.8331,2.8333,2.8246,2.8235,2.8224,2.8208,2.8335,2.8335,2.8422,2.8423,2.8423]}]]